TimeMST,TemperatureF,Dew PointF,Humidity,Sea Level PressureIn,VisibilityMPH,Wind Direction,Wind SpeedMPH,Gust SpeedMPH,PrecipitationIn,Events,Conditions,WindDirDegrees,DateUTC
12:53 AM,30.0,21.0,69,29.80,10.0,SW,16.1,-,N/A,,Clear,220,2014-01-29 07:53:00
1:53 AM,30.9,21.9,69,29.79,10.0,SW,17.3,24.2,N/A,,Clear,220,2014-01-29 08:53:00
2:53 AM,30.9,21.9,69,29.79,10.0,SW,17.3,-,N/A,,Clear,230,2014-01-29 09:53:00
3:53 AM,28.9,21.0,72,29.78,10.0,SW,16.1,-,N/A,,Clear,220,2014-01-29 10:53:00
4:53 AM,28.0,21.0,75,29.78,10.0,SW,13.8,-,N/A,,Clear,220,2014-01-29 11:53:00
5:53 AM,28.0,21.0,75,29.77,10.0,SW,13.8,-,N/A,,Scattered Clouds,230,2014-01-29 12:53:00
6:53 AM,28.0,21.0,75,29.76,10.0,SW,12.7,-,N/A,,Overcast,220,2014-01-29 13:53:00
7:53 AM,25.0,19.9,81,29.76,10.0,WSW,3.5,-,N/A,,Overcast,250,2014-01-29 14:53:00
8:53 AM,28.0,21.0,75,29.73,10.0,WSW,4.6,-,N/A,,Clear,240,2014-01-29 15:53:00
9:53 AM,28.9,21.9,75,29.70,10.0,WSW,5.8,-,N/A,,Clear,240,2014-01-29 16:53:00
10:53 AM,30.0,21.9,72,29.68,10.0,WSW,5.8,-,N/A,,Clear,250,2014-01-29 17:53:00
11:53 AM,30.9,19.9,64,29.65,10.0,NW,6.9,-,N/A,,Clear,320,2014-01-29 18:53:00
12:53 PM,30.0,19.9,66,29.63,10.0,NW,6.9,-,N/A,,Overcast,320,2014-01-29 19:53:00
1:50 PM,28.4,19.4,69,29.53,3.0,North,8.1,-,0.00,Snow,Light Snow,350,2014-01-29 20:50:00
1:53 PM,28.0,19.9,72,29.60,2.5,NNW,8.1,-,0.00,Snow,Light Snow,330,2014-01-29 20:53:00
2:05 PM,27.0,21.0,78,29.53,1.2,NNW,5.8,-,0.00,Snow,Light Snow,330,2014-01-29 21:05:00
2:17 PM,26.1,21.9,84,29.53,0.5,NNW,4.6,-,0.00,Fog-Snow,Snow,330,2014-01-29 21:17:00
2:25 PM,26.1,23.0,88,29.53,0.5,NNW,4.6,-,0.01,Fog-Snow,Snow,340,2014-01-29 21:25:00
2:53 PM,26.1,24.1,92,29.60,0.5,North,4.6,-,0.03,Fog-Snow,Snow,350,2014-01-29 21:53:00
3:53 PM,25.0,21.9,88,29.62,0.8,ENE,10.4,-,0.04,Snow,Light Snow,70,2014-01-29 22:53:00
4:38 PM,24.1,21.0,88,29.54,0.8,ENE,9.2,-,0.02,Snow,Light Snow,60,2014-01-29 23:38:00
4:53 PM,24.1,21.0,88,29.64,0.8,NE,8.1,-,0.03,Snow,Light Snow,50,2014-01-29 23:53:00
5:30 PM,23.0,19.9,88,29.56,1.2,ENE,13.8,-,0.02,Snow,Light Snow,70,2014-01-30 00:30:00
5:35 PM,21.9,19.0,89,29.56,1.5,ENE,12.7,-,0.02,Snow,Light Snow,60,2014-01-30 00:35:00
5:53 PM,21.9,19.0,89,29.66,1.8,NE,10.4,-,0.03,Snow,Light Snow,50,2014-01-30 00:53:00
6:24 PM,21.0,18.0,88,29.58,1.2,NE,12.7,-,0.00,Snow,Light Snow,50,2014-01-30 01:24:00
6:39 PM,21.0,18.0,88,29.59,1.5,ENE,10.4,-,0.01,Snow,Light Snow,60,2014-01-30 01:39:00
6:53 PM,21.0,18.0,88,29.69,1.8,NE,10.4,-,0.01,Snow,Light Snow,50,2014-01-30 01:53:00
7:23 PM,19.9,17.1,89,29.61,1.2,NE,11.5,-,0.01,Snow,Light Snow,50,2014-01-30 02:23:00
7:33 PM,19.9,17.1,89,29.62,1.5,NNE,10.4,-,0.01,Snow,Light Snow,30,2014-01-30 02:33:00
7:49 PM,19.4,15.8,86,29.62,1.2,NNE,11.5,-,0.01,Snow,Light Snow,30,2014-01-30 02:49:00
7:53 PM,19.0,15.1,85,29.73,1.2,NNE,12.7,-,0.02,Snow,Light Snow,30,2014-01-30 02:53:00
7:59 PM,19.0,15.1,85,29.63,2.0,NE,12.7,-,0.00,Snow,Light Snow,40,2014-01-30 02:59:00
8:17 PM,19.0,14.0,81,29.64,3.0,NNE,10.4,-,0.00,Snow,Light Snow,30,2014-01-30 03:17:00
8:28 PM,18.0,14.0,84,29.65,2.5,NE,12.7,-,0.01,Snow,Light Snow,40,2014-01-30 03:28:00
8:35 PM,18.0,14.0,84,29.65,3.0,NNE,13.8,-,0.01,Snow,Light Snow,30,2014-01-30 03:35:00
8:42 PM,18.0,14.0,84,29.65,2.5,NNE,12.7,-,0.01,Snow,Light Snow,30,2014-01-30 03:42:00
8:44 PM,18.0,14.0,84,29.65,3.0,NNE,11.5,-,0.01,Snow,Light Snow,30,2014-01-30 03:44:00
8:53 PM,18.0,14.0,84,29.76,3.0,NNE,11.5,-,0.01,Snow,Light Snow,30,2014-01-30 03:53:00
9:05 PM,18.0,14.0,84,29.67,1.8,NNE,12.7,-,0.00,Snow,Light Snow,30,2014-01-30 04:05:00
9:25 PM,18.0,12.9,81,29.68,2.0,NNE,9.2,-,0.00,Snow,Light Snow,30,2014-01-30 04:25:00
9:41 PM,17.1,12.9,84,29.69,3.0,NNE,10.4,-,0.01,Snow,Light Snow,20,2014-01-30 04:41:00
9:53 PM,17.1,12.9,84,29.80,4.0,NNE,8.1,-,0.01,Snow,Light Snow,30,2014-01-30 04:53:00
10:02 PM,17.1,12.9,84,29.71,3.0,NNE,9.2,-,0.00,Snow,Light Snow,20,2014-01-30 05:02:00
10:39 PM,17.1,12.9,84,29.72,3.0,North,8.1,-,0.00,Snow,Light Snow,10,2014-01-30 05:39:00
10:50 PM,17.6,12.2,79,29.74,2.5,NNE,6.9,-,0.00,Snow,Light Snow,30,2014-01-30 05:50:00
10:53 PM,17.1,12.9,84,29.84,2.5,NNE,6.9,-,0.00,Snow,Light Snow,20,2014-01-30 05:53:00
11:14 PM,16.0,10.9,81,29.76,4.0,NNE,9.2,-,0.01,Snow,Light Snow,30,2014-01-30 06:14:00
11:30 PM,16.0,10.9,81,29.76,3.0,North,9.2,-,0.01,Snow,Light Snow,360,2014-01-30 06:30:00
11:51 PM,15.8,10.4,79,29.78,2.5,NNE,4.6,-,0.01,Snow,Light Snow,20,2014-01-30 06:51:00
11:52 PM,16.0,10.9,81,29.88,2.5,NNE,5.8,-,0.01,Snow,Light Snow,20,2014-01-30 06:52:00